Anoka County, MN

8:18 AM CST on February 24, 2018 (GMT -0600)
Anoka County / Blaine Airport

Weather History for KANE - June, 2013

Change the Weather History Date:

Monday, June 10, 2013

  Actual Average Record
Temperature  
Mean Temperature 66 °F -  
Max Temperature 75 °F 71 °F 93 °F (2017)
Min Temperature 57 °F 53 °F 48 °F (2006)
Cooling Degree Days 1    
Growing Degree Days 16 (Base 50)    
Moisture  
Dew Point 60 °F    
Average Humidity 89    
Maximum Humidity 100    
Minimum Humidity 61    
Precipitation  
Precipitation 0.00 in - - ()
Sea Level Pressure  
Sea Level Pressure 29.83 in    
Wind  
Wind Speed 2 mph (NW)    
Max Wind Speed 7 mph    
Max Gust Speed -    
Visibility 5 miles    
Events Fog    
Averages and records for this station are not official NWS values.
T = Trace of Precipitation, MM = Missing Value Source: NWS Daily Summary

Daily Weather History Graph

Daily Weather History Graph

Search for Another Location

Airport or City:

Trip Planner

Search our weather history database for the weather conditions in past years. The results will help you decide how hot, cold, wet, or windy it might be!

Date:

Astronomy

Jun. 10, 2013 Rise Set
Actual Time 5:25 AM CDT 8:59 PM CDT
Civil Twilight 4:48 AM CDT 9:36 PM CDT
Nautical Twilight 3:58 AM CDT 10:26 PM CDT
Astronomical Twilight 2:53 AM CDT 11:31 PM CDT
Moon 7:18 AM CDT (6/10) 10:21 PM CDT (6/10)
Length of Visible Light 16h 48m
Length of Day
15h 34m
Waxing Crescent, 4% of the Moon is Illuminated
Jun 10
Waxing Crescent
Jun 16
First Quarter
Jun 23
Full
Jun 29
Last Quarter
Jul 8
New

Hourly Weather History & Observations

Time (CDT) Temp. Dew Point Humidity Pressure Visibility Wind Dir Wind Speed Gust Speed Precip Events Conditions
12:14 AM 60.8 °F 59.0 °F 94% 29.83 in 4.0 mi NE 3.5 mph - N/A   Mostly Cloudy
12:34 AM 60.8 °F 57.2 °F 88% 29.83 in 3.0 mi NNW 3.5 mph - N/A   Scattered Clouds
12:54 AM 59.0 °F 57.2 °F 94% 29.82 in 0.5 mi NW 3.5 mph - N/A Fog Fog
1:14 AM 59.0 °F 57.2 °F 94% 29.82 in 0.5 mi Calm Calm - N/A Fog Fog
1:33 AM 57.2 °F 57.2 °F 100% 29.82 in 0.2 mi Calm Calm - N/A Fog Fog
1:54 AM 57.2 °F 57.2 °F 100% 29.82 in 0.2 mi Calm Calm - N/A Fog Fog
2:14 AM 59.0 °F 57.2 °F 94% 29.82 in 0.5 mi Calm Calm - N/A Fog Fog
2:34 AM 59.0 °F 57.2 °F 94% 29.82 in 2.0 mi Calm Calm - N/A   Overcast
2:54 AM 59.0 °F 57.2 °F 94% 29.81 in 2.0 mi Calm Calm - N/A   Overcast
3:14 AM 59.0 °F 57.2 °F 94% 29.81 in 0.8 mi Calm Calm - N/A   Overcast
3:34 AM 59.0 °F 57.2 °F 94% 29.81 in 1.5 mi Calm Calm - N/A   Overcast
3:54 AM 60.8 °F 59.0 °F 94% 29.81 in 2.0 mi Calm Calm - N/A   Overcast
4:14 AM 60.8 °F 59.0 °F 94% 29.81 in 2.0 mi Calm Calm - N/A   Overcast
4:34 AM 60.8 °F 59.0 °F 94% 29.81 in 2.5 mi Calm Calm - N/A   Overcast
4:54 AM 60.8 °F 59.0 °F 94% 29.81 in 2.5 mi Calm Calm - N/A   Overcast
5:14 AM 60.8 °F 59.0 °F 94% 29.81 in 2.5 mi Calm Calm - N/A   Overcast
5:34 AM 60.8 °F 60.8 °F 100% 29.81 in 2.5 mi Calm Calm - N/A   Overcast
5:54 AM 60.8 °F 60.8 °F 100% 29.81 in 2.5 mi Calm Calm - N/A   Overcast
6:14 AM 60.8 °F 59.0 °F 94% 29.81 in 1.8 mi East 4.6 mph - N/A   Overcast
6:34 AM 60.8 °F 60.8 °F 100% 29.82 in 2.0 mi Calm Calm - N/A   Overcast
6:45 AM 60.8 °F 60.8 °F 100% 29.82 in 2.5 mi Calm Calm - N/A   Overcast
6:53 AM 62.6 °F 60.8 °F 94% 29.83 in 2.5 mi Calm Calm - N/A   Overcast
7:50 AM 64.4 °F 62.6 °F 94% 29.82 in 2.5 mi Calm Calm - N/A   Overcast
8:50 AM 64.4 °F 62.6 °F 94% 29.84 in 2.5 mi Calm Calm - N/A   Overcast
9:45 AM 64.4 °F 62.6 °F 94% 29.86 in 3.0 mi West 4.6 mph - N/A   Overcast
10:45 AM 66.2 °F 62.6 °F 88% 29.85 in 5.0 mi WNW 4.6 mph - N/A   Overcast
11:45 AM 66.2 °F 62.6 °F 88% 29.86 in 5.0 mi NW 4.6 mph - N/A   Overcast
12:45 PM 68.0 °F 62.6 °F 83% 29.86 in 7.0 mi NNW 3.5 mph - N/A   Overcast
1:45 PM 68.0 °F 62.6 °F 83% 29.85 in 7.0 mi Calm Calm - N/A   Overcast
2:55 PM 73.4 °F 62.6 °F 69% 29.84 in 10.0 mi WNW 6.9 mph - N/A   Mostly Cloudy
3:55 PM 73.4 °F 60.8 °F 65% 29.84 in 10.0 mi WNW 6.9 mph - N/A   Mostly Cloudy
4:55 PM 73.4 °F 62.6 °F 69% 29.84 in 10.0 mi NW 5.8 mph - N/A   Scattered Clouds
5:50 PM 75.2 °F 62.6 °F 65% 29.84 in 10.0 mi West 6.9 mph - N/A   Scattered Clouds
6:50 PM 75.2 °F 60.8 °F 61% 29.84 in 10.0 mi West 5.8 mph - N/A   Scattered Clouds
7:50 PM 73.4 °F 62.6 °F 69% 29.83 in 10.0 mi West 6.9 mph - N/A   Partly Cloudy
8:55 PM 71.6 °F 60.8 °F 69% 29.83 in 10.0 mi Calm Calm - N/A   Partly Cloudy
9:14 PM 69.8 °F 60.8 °F 73% 29.83 in 10.0 mi Calm Calm - N/A   Scattered Clouds
9:33 PM 66.2 °F 62.6 °F 88% 29.84 in 10.0 mi Calm Calm - N/A   Clear
9:45 PM 64.4 °F 60.8 °F 88% 29.84 in 10.0 mi Calm Calm - N/A   Scattered Clouds
9:54 PM 64.4 °F 60.8 °F 88% 29.84 in 10.0 mi Calm Calm - N/A   Clear
10:14 PM 62.6 °F 60.8 °F 94% 29.85 in 10.0 mi Calm Calm - N/A   Clear
10:34 PM 62.6 °F 60.8 °F 94% 29.85 in 10.0 mi Calm Calm - N/A   Mostly Cloudy
10:54 PM 62.6 °F 60.8 °F 94% 29.85 in 7.0 mi Calm Calm - N/A   Scattered Clouds
11:14 PM 60.8 °F 59.0 °F 94% 29.86 in 10.0 mi Calm Calm - N/A   Clear
11:34 PM 60.8 °F 59.0 °F 94% 29.85 in 7.0 mi Calm Calm - N/A   Clear
11:54 PM 60.8 °F 59.0 °F 94% 29.84 in 4.0 mi Calm Calm - N/A   Clear